Time,TemperatureF,DewpointF,PressureIn,WindDirection,WindDirectionDegrees,WindSpeedMPH,WindSpeedGustMPH,Humidity,HourlyPrecipIn,Conditions,Clouds,dailyrainin,SoftwareType,DateUTC
2013-03-15 00:03:00,28.0,-99.9,29.81,NW,312,15.0,27.0,-999,-99.99,,,-99.99,,2013-03-15 04:03:00,
2013-03-15 00:23:00,-999.0,-99.9,29.81,NW,313,17.0,30.0,-999,-99.99,,,-99.99,,2013-03-15 04:23:00,
2013-03-15 00:33:00,-999.0,-99.9,29.82,NW,312,16.0,31.0,-999,-99.99,,,-99.99,,2013-03-15 04:33:00,
2013-03-15 00:43:00,28.0,-99.9,29.82,NW,324,22.0,35.0,-999,-99.99,,,-99.99,,2013-03-15 04:43:00,
2013-03-15 00:53:00,-999.0,-99.9,29.82,NW,317,21.0,31.0,-999,-99.99,,,-99.99,,2013-03-15 04:53:00,
2013-03-15 01:03:00,-999.0,-99.9,29.82,NW,308,17.0,30.0,-999,-99.99,,,-99.99,,2013-03-15 05:03:00,
2013-03-15 01:12:00,27.0,-99.9,29.83,NW,311,19.0,31.0,-999,-99.99,,,-99.99,,2013-03-15 05:12:00,
2013-03-15 01:23:00,-999.0,-99.9,29.83,NW,318,21.0,28.0,-999,-99.99,,,-99.99,,2013-03-15 05:23:00,
2013-03-15 01:32:00,-999.0,-99.9,29.83,WNW,298,18.0,28.0,-999,-99.99,,,-99.99,,2013-03-15 05:32:00,
2013-03-15 01:42:00,27.0,-99.9,29.83,NW,307,19.0,26.0,-999,-99.99,,,-99.99,,2013-03-15 05:42:00,
2013-03-15 01:52:00,-999.0,-99.9,29.84,NW,304,18.0,25.0,-999,-99.99,,,-99.99,,2013-03-15 05:52:00,
2013-03-15 02:02:00,-999.0,-99.9,29.84,WNW,303,14.0,23.0,-999,-99.99,,,-99.99,,2013-03-15 06:02:00,
2013-03-15 02:13:00,-999.0,-99.9,29.84,NW,309,14.0,31.0,-999,-99.99,,,-99.99,,2013-03-15 06:13:00,
2013-03-15 02:22:00,-999.0,-99.9,29.84,NW,307,16.0,24.0,-999,-99.99,,,-99.99,,2013-03-15 06:22:00,
2013-03-15 02:33:00,-999.0,-99.9,29.84,NW,319,15.0,28.0,-999,-99.99,,,-99.99,,2013-03-15 06:33:00,
2013-03-15 02:43:00,26.0,-99.9,29.84,NW,312,18.0,29.0,-999,-99.99,,,-99.99,,2013-03-15 06:43:00,
2013-03-15 02:53:00,-999.0,-99.9,29.83,NW,308,23.0,35.0,-999,-99.99,,,-99.99,,2013-03-15 06:53:00,
2013-03-15 03:02:00,26.0,-99.9,29.83,NW,307,19.0,31.0,-999,-99.99,,,-99.99,,2013-03-15 07:02:00,
2013-03-15 03:13:00,-999.0,-99.9,29.83,WNW,302,15.0,28.0,-999,-99.99,,,-99.99,,2013-03-15 07:13:00,
2013-03-15 03:22:00,26.0,-99.9,29.83,NW,320,17.0,33.0,-999,-99.99,,,-99.99,,2013-03-15 07:22:00,
2013-03-15 03:32:00,27.0,-99.9,29.83,NW,317,17.0,27.0,-999,-99.99,,,-99.99,,2013-03-15 07:32:00,
2013-03-15 03:42:00,26.0,-99.9,29.83,NW,315,18.0,26.0,-999,-99.99,,,-99.99,,2013-03-15 07:42:00,
2013-03-15 03:52:00,-999.0,-99.9,29.83,NW,325,19.0,32.0,-999,-99.99,,,-99.99,,2013-03-15 07:52:00,
2013-03-15 04:03:00,-999.0,-99.9,29.83,WNW,303,18.0,28.0,-999,-99.99,,,-99.99,,2013-03-15 08:03:00,
2013-03-15 04:12:00,26.0,-99.9,29.83,NW,310,18.0,28.0,-999,-99.99,,,-99.99,,2013-03-15 08:12:00,
2013-03-15 04:23:00,-999.0,-99.9,29.83,NW,314,20.0,31.0,-999,-99.99,,,-99.99,,2013-03-15 08:23:00,
2013-03-15 04:33:00,-999.0,-99.9,29.83,NW,308,18.0,31.0,-999,-99.99,,,-99.99,,2013-03-15 08:33:00,
2013-03-15 04:42:00,-999.0,-99.9,29.83,NW,310,18.0,24.0,-999,-99.99,,,-99.99,,2013-03-15 08:42:00,
2013-03-15 04:53:00,-999.0,-99.9,29.83,NW,304,18.0,28.0,-999,-99.99,,,-99.99,,2013-03-15 08:53:00,
2013-03-15 05:02:00,-999.0,-99.9,29.83,NW,310,18.0,29.0,-999,-99.99,,,-99.99,,2013-03-15 09:02:00,
2013-03-15 05:12:00,26.0,-99.9,29.83,NW,314,17.0,28.0,-999,-99.99,,,-99.99,,2013-03-15 09:12:00,
2013-03-15 05:22:00,-999.0,-99.9,29.83,NW,323,18.0,28.0,-999,-99.99,,,-99.99,,2013-03-15 09:22:00,
2013-03-15 05:34:00,-999.0,-99.9,29.83,NW,307,16.0,29.0,-999,-99.99,,,-99.99,,2013-03-15 09:34:00,
2013-03-15 05:43:00,26.0,-99.9,29.83,NW,310,14.0,28.0,-999,-99.99,,,-99.99,,2013-03-15 09:43:00,
2013-03-15 05:53:00,-999.0,-99.9,29.84,NW,310,16.0,36.0,-999,-99.99,,,-99.99,,2013-03-15 09:53:00,
2013-03-15 06:03:00,-999.0,-99.9,29.84,NW,316,12.0,27.0,-999,-99.99,,,-99.99,,2013-03-15 10:03:00,
2013-03-15 06:13:00,26.0,-99.9,29.84,NW,318,16.0,25.0,-999,-99.99,,,-99.99,,2013-03-15 10:13:00,
2013-03-15 06:23:00,-999.0,-99.9,29.85,NW,322,18.0,27.0,-999,-99.99,,,-99.99,,2013-03-15 10:23:00,
2013-03-15 06:33:00,-999.0,-99.9,29.85,NW,306,13.0,25.0,-999,-99.99,,,-99.99,,2013-03-15 10:33:00,
2013-03-15 06:43:00,26.0,-99.9,29.85,NW,314,13.0,30.0,-999,-99.99,,,-99.99,,2013-03-15 10:43:00,
2013-03-15 06:52:00,-999.0,-99.9,29.85,WNW,303,15.0,24.0,-999,-99.99,,,-99.99,,2013-03-15 10:52:00,
2013-03-15 07:03:00,-999.0,-99.9,29.85,NNW,327,17.0,23.0,-999,-99.99,,,-99.99,,2013-03-15 11:03:00,
2013-03-15 07:12:00,-999.0,-99.9,29.86,NW,318,15.0,24.0,-999,-99.99,,,-99.99,,2013-03-15 11:12:00,
2013-03-15 07:23:00,-999.0,-99.9,29.86,NW,321,17.0,23.0,-999,-99.99,,,-99.99,,2013-03-15 11:23:00,
2013-03-15 07:33:00,-999.0,-99.9,29.86,NW,318,13.0,24.0,-999,-99.99,,,-99.99,,2013-03-15 11:33:00,
2013-03-15 07:43:00,25.0,-99.9,29.86,NW,319,12.0,23.0,-999,-99.99,,,-99.99,,2013-03-15 11:43:00,
2013-03-15 07:53:00,-999.0,-99.9,29.86,WNW,299,15.0,19.0,-999,-99.99,,,-99.99,,2013-03-15 11:53:00,
2013-03-15 08:02:00,-999.0,-99.9,29.87,NW,325,13.0,21.0,-999,-99.99,,,-99.99,,2013-03-15 12:02:00,
2013-03-15 08:12:00,26.0,-99.9,29.87,NW,319,12.0,23.0,-999,-99.99,,,-99.99,,2013-03-15 12:12:00,
2013-03-15 08:23:00,-999.0,-99.9,29.87,NW,312,13.0,26.0,-999,-99.99,,,-99.99,,2013-03-15 12:23:00,
2013-03-15 08:32:00,-999.0,-99.9,29.87,NW,314,13.0,23.0,-999,-99.99,,,-99.99,,2013-03-15 12:32:00,
2013-03-15 08:42:00,26.0,-99.9,29.87,NW,313,12.0,26.0,-999,-99.99,,,-99.99,,2013-03-15 12:42:00,
2013-03-15 08:52:00,-999.0,-99.9,29.87,NW,308,12.0,22.0,-999,-99.99,,,-99.99,,2013-03-15 12:52:00,
2013-03-15 09:02:00,-999.0,-99.9,29.87,NW,308,17.0,23.0,-999,-99.99,,,-99.99,,2013-03-15 13:02:00,
2013-03-15 09:12:00,26.0,-99.9,29.87,NW,311,15.0,28.0,-999,-99.99,,,-99.99,,2013-03-15 13:12:00,
2013-03-15 09:22:00,-999.0,-99.9,29.87,WNW,298,13.0,26.0,-999,-99.99,,,-99.99,,2013-03-15 13:22:00,
2013-03-15 09:32:00,-999.0,-99.9,29.87,NW,312,15.0,22.0,-999,-99.99,,,-99.99,,2013-03-15 13:32:00,
2013-03-15 09:42:00,-999.0,-99.9,29.87,NW,317,15.0,25.0,-999,-99.99,,,-99.99,,2013-03-15 13:42:00,
2013-03-15 09:53:00,-999.0,-99.9,29.87,NW,312,16.0,28.0,-999,-99.99,,,-99.99,,2013-03-15 13:53:00,
2013-03-15 10:02:00,-999.0,-99.9,29.88,NW,312,14.0,26.0,-999,-99.99,,,-99.99,,2013-03-15 14:02:00,
2013-03-15 10:12:00,28.0,-99.9,29.87,WNW,298,14.0,26.0,-999,-99.99,,,-99.99,,2013-03-15 14:12:00,
2013-03-15 10:22:00,-999.0,-99.9,29.87,WNW,301,13.0,22.0,-999,-99.99,,,-99.99,,2013-03-15 14:22:00,
2013-03-15 10:33:00,-999.0,-99.9,29.87,NW,311,12.0,23.0,-999,-99.99,,,-99.99,,2013-03-15 14:33:00,
2013-03-15 10:42:00,28.0,-99.9,29.87,NW,311,12.0,21.0,-999,-99.99,,,-99.99,,2013-03-15 14:42:00,
2013-03-15 10:53:00,-999.0,-99.9,29.86,WNW,302,13.0,26.0,-999,-99.99,,,-99.99,,2013-03-15 14:53:00,
2013-03-15 11:02:00,-999.0,-99.9,29.86,NW,310,9.0,22.0,-999,-99.99,,,-99.99,,2013-03-15 15:02:00,
2013-03-15 11:13:00,29.0,-99.9,29.87,NW,318,11.0,21.0,-999,-99.99,,,-99.99,,2013-03-15 15:13:00,
2013-03-15 11:23:00,-999.0,-99.9,29.86,NW,309,11.0,21.0,-999,-99.99,,,-99.99,,2013-03-15 15:23:00,
2013-03-15 11:33:00,-999.0,-99.9,29.86,WNW,298,13.0,19.0,-999,-99.99,,,-99.99,,2013-03-15 15:33:00,
2013-03-15 11:43:00,30.0,-99.9,29.86,NW,311,15.0,21.0,-999,-99.99,,,-99.99,,2013-03-15 15:43:00,
2013-03-15 11:53:00,-999.0,-99.9,29.85,West,279,10.0,18.0,-999,-99.99,,,-99.99,,2013-03-15 15:53:00,
2013-03-15 12:03:00,-999.0,-99.9,29.85,WNW,302,11.0,20.0,-999,-99.99,,,-99.99,,2013-03-15 16:03:00,
2013-03-15 12:13:00,-999.0,-99.9,29.85,NW,306,14.0,20.0,-999,-99.99,,,-99.99,,2013-03-15 16:13:00,
2013-03-15 12:23:00,-999.0,-99.9,29.85,WNW,303,16.0,24.0,-999,-99.99,,,-99.99,,2013-03-15 16:23:00,
2013-03-15 12:32:00,-999.0,-99.9,29.84,NW,308,14.0,20.0,-999,-99.99,,,-99.99,,2013-03-15 16:32:00,
2013-03-15 12:42:00,31.0,-99.9,29.84,NW,305,15.0,21.0,-999,-99.99,,,-99.99,,2013-03-15 16:42:00,
2013-03-15 12:53:00,-999.0,-99.9,29.84,WNW,293,10.0,17.0,-999,-99.99,,,-99.99,,2013-03-15 16:53:00,
2013-03-15 13:02:00,34.0,-99.9,29.83,West,269,7.0,21.0,-999,-99.99,,,-99.99,,2013-03-15 17:02:00,
2013-03-15 13:12:00,33.0,-99.9,29.83,WNW,299,11.0,17.0,-999,-99.99,,,-99.99,,2013-03-15 17:12:00,
2013-03-15 13:23:00,33.0,-99.9,29.82,West,267,9.0,19.0,-999,-99.99,,,-99.99,,2013-03-15 17:23:00,
2013-03-15 13:33:00,34.0,-99.9,29.82,West,277,11.0,20.0,-999,-99.99,,,-99.99,,2013-03-15 17:33:00,
2013-03-15 13:43:00,34.0,-99.9,29.81,WNW,286,8.0,17.0,-999,-99.99,,,-99.99,,2013-03-15 17:43:00,
2013-03-15 13:53:00,33.0,-99.9,29.80,West,265,10.0,22.0,-999,-99.99,,,-99.99,,2013-03-15 17:53:00,
2013-03-15 14:03:00,34.0,-99.9,29.80,West,271,10.0,17.0,-999,-99.99,,,-99.99,,2013-03-15 18:03:00,
2013-03-15 14:12:00,34.0,-99.9,29.80,West,259,10.0,22.0,-999,-99.99,,,-99.99,,2013-03-15 18:12:00,
2013-03-15 14:22:00,34.0,-99.9,29.79,West,267,11.0,18.0,-999,-99.99,,,-99.99,,2013-03-15 18:22:00,
2013-03-15 14:32:00,34.0,-99.9,29.78,West,267,12.0,19.0,-999,-99.99,,,-99.99,,2013-03-15 18:32:00,
2013-03-15 14:42:00,34.0,-99.9,29.78,WSW,247,11.0,19.0,-999,-99.99,,,-99.99,,2013-03-15 18:42:00,
2013-03-15 14:53:00,34.0,-99.9,29.78,WSW,246,11.0,19.0,-999,-99.99,,,-99.99,,2013-03-15 18:53:00,
2013-03-15 15:02:00,35.0,-99.9,29.77,West,271,8.0,18.0,-999,-99.99,,,-99.99,,2013-03-15 19:02:00,
2013-03-15 15:13:00,35.0,-99.9,29.76,West,278,13.0,20.0,-999,-99.99,,,-99.99,,2013-03-15 19:13:00,
2013-03-15 15:23:00,35.0,-99.9,29.76,WSW,251,14.0,21.0,-999,-99.99,,,-99.99,,2013-03-15 19:23:00,
2013-03-15 15:32:00,35.0,-99.9,29.75,WSW,257,11.0,21.0,-999,-99.99,,,-99.99,,2013-03-15 19:32:00,
2013-03-15 15:42:00,36.0,-99.9,29.75,West,261,9.0,17.0,-999,-99.99,,,-99.99,,2013-03-15 19:42:00,
2013-03-15 15:53:00,37.0,-99.9,29.75,WSW,258,8.0,13.0,-999,-99.99,,,-99.99,,2013-03-15 19:53:00,
2013-03-15 16:03:00,37.0,-99.9,29.74,West,263,11.0,20.0,-999,-99.99,,,-99.99,,2013-03-15 20:03:00,
2013-03-15 16:12:00,36.0,-99.9,29.73,WSW,250,14.0,21.0,-999,-99.99,,,-99.99,,2013-03-15 20:12:00,
2013-03-15 16:22:00,36.0,-99.9,29.73,WSW,247,9.0,19.0,-999,-99.99,,,-99.99,,2013-03-15 20:22:00,
2013-03-15 16:32:00,36.0,-99.9,29.73,WSW,254,12.0,22.0,-999,-99.99,,,-99.99,,2013-03-15 20:32:00,
2013-03-15 16:42:00,36.0,-99.9,29.73,WSW,245,13.0,23.0,-999,-99.99,,,-99.99,,2013-03-15 20:42:00,
2013-03-15 16:52:00,36.0,-99.9,29.73,SW,234,11.0,24.0,-999,-99.99,,,-99.99,,2013-03-15 20:52:00,
2013-03-15 17:02:00,36.0,-99.9,29.72,WSW,249,9.0,23.0,-999,-99.99,,,-99.99,,2013-03-15 21:02:00,
2013-03-15 17:12:00,37.0,-99.9,29.72,WSW,249,13.0,19.0,-999,-99.99,,,-99.99,,2013-03-15 21:12:00,
2013-03-15 17:22:00,37.0,-99.9,29.72,WSW,237,14.0,22.0,-999,-99.99,,,-99.99,,2013-03-15 21:22:00,
2013-03-15 17:33:00,37.0,-99.9,29.71,WSW,257,13.0,25.0,-999,-99.99,,,-99.99,,2013-03-15 21:33:00,
2013-03-15 17:43:00,38.0,-99.9,29.71,WSW,249,7.0,20.0,-999,-99.99,,,-99.99,,2013-03-15 21:43:00,
2013-03-15 17:53:00,38.0,-99.9,29.71,WSW,252,14.0,25.0,-999,-99.99,,,-99.99,,2013-03-15 21:53:00,
2013-03-15 18:04:00,38.0,-99.9,29.70,WSW,240,13.0,18.0,-999,-99.99,,,-99.99,,2013-03-15 22:04:00,
2013-03-15 18:14:00,38.0,-99.9,29.70,WSW,247,12.0,22.0,-999,-99.99,,,-99.99,,2013-03-15 22:14:00,
2013-03-15 18:22:00,38.0,-99.9,29.70,WSW,250,11.0,24.0,-999,-99.99,,,-99.99,,2013-03-15 22:22:00,
2013-03-15 18:33:00,38.0,-99.9,29.70,WSW,255,11.0,22.0,-999,-99.99,,,-99.99,,2013-03-15 22:33:00,
2013-03-15 18:42:00,38.0,-99.9,29.70,WSW,254,13.0,26.0,-999,-99.99,,,-99.99,,2013-03-15 22:42:00,
2013-03-15 18:53:00,38.0,-99.9,29.70,WSW,253,13.0,22.0,-999,-99.99,,,-99.99,,2013-03-15 22:53:00,
2013-03-15 19:03:00,38.0,-99.9,29.70,West,261,9.0,20.0,-999,-99.99,,,-99.99,,2013-03-15 23:03:00,
2013-03-15 19:12:00,38.0,-99.9,29.71,West,260,9.0,21.0,-999,-99.99,,,-99.99,,2013-03-15 23:12:00,
2013-03-15 19:22:00,38.0,-99.9,29.70,WSW,253,11.0,23.0,-999,-99.99,,,-99.99,,2013-03-15 23:22:00,
2013-03-15 19:32:00,38.0,-99.9,29.70,WSW,251,17.0,28.0,-999,-99.99,,,-99.99,,2013-03-15 23:32:00,
2013-03-15 19:43:00,38.0,-99.9,29.70,WSW,253,16.0,29.0,-999,-99.99,,,-99.99,,2013-03-15 23:43:00,
2013-03-15 19:53:00,38.0,-99.9,29.70,WSW,257,13.0,26.0,-999,-99.99,,,-99.99,,2013-03-15 23:53:00,
2013-03-15 20:03:00,38.0,-99.9,29.70,WSW,255,11.0,18.0,-999,-99.99,,,-99.99,,2013-03-16 00:03:00,
2013-03-15 20:12:00,38.0,-99.9,29.70,WSW,255,9.0,17.0,-999,-99.99,,,-99.99,,2013-03-16 00:12:00,
2013-03-15 20:22:00,38.0,-99.9,29.70,WSW,257,11.0,20.0,-999,-99.99,,,-99.99,,2013-03-16 00:22:00,
2013-03-15 20:32:00,38.0,-99.9,29.70,WSW,257,11.0,20.0,-999,-99.99,,,-99.99,,2013-03-16 00:32:00,
2013-03-15 20:42:00,39.0,-99.9,29.70,West,264,11.0,21.0,-999,-99.99,,,-99.99,,2013-03-16 00:42:00,
2013-03-15 20:52:00,39.0,-99.9,29.70,West,264,10.0,22.0,-999,-99.99,,,-99.99,,2013-03-16 00:52:00,
2013-03-15 21:03:00,39.0,-99.9,29.70,West,267,9.0,22.0,-999,-99.99,,,-99.99,,2013-03-16 01:03:00,
2013-03-15 21:12:00,39.0,-99.9,29.70,West,259,11.0,20.0,-999,-99.99,,,-99.99,,2013-03-16 01:12:00,
2013-03-15 21:22:00,39.0,-99.9,29.70,West,260,11.0,21.0,-999,-99.99,,,-99.99,,2013-03-16 01:22:00,
2013-03-15 21:32:00,38.0,-99.9,29.70,West,272,6.0,17.0,-999,-99.99,,,-99.99,,2013-03-16 01:32:00,
2013-03-15 21:42:00,38.0,-99.9,29.70,West,272,6.0,12.0,-999,-99.99,,,-99.99,,2013-03-16 01:42:00,
2013-03-15 21:53:00,38.0,-99.9,29.70,West,273,6.0,12.0,-999,-99.99,,,-99.99,,2013-03-16 01:53:00,
2013-03-15 22:02:00,38.0,-99.9,29.70,West,271,7.0,11.0,-999,-99.99,,,-99.99,,2013-03-16 02:02:00,
2013-03-15 22:13:00,38.0,-99.9,29.70,West,269,6.0,12.0,-999,-99.99,,,-99.99,,2013-03-16 02:13:00,
2013-03-15 22:23:00,39.0,-99.9,29.70,West,269,8.0,14.0,-999,-99.99,,,-99.99,,2013-03-16 02:23:00,
2013-03-15 22:33:00,39.0,-99.9,29.70,West,273,6.0,13.0,-999,-99.99,,,-99.99,,2013-03-16 02:33:00,
2013-03-15 22:43:00,39.0,-99.9,29.70,West,261,5.0,10.0,-999,-99.99,,,-99.99,,2013-03-16 02:43:00,
2013-03-15 22:53:00,39.0,-99.9,29.70,West,274,8.0,14.0,-999,-99.99,,,-99.99,,2013-03-16 02:53:00,
2013-03-15 23:02:00,40.0,-99.9,29.70,West,270,6.0,16.0,-999,-99.99,,,-99.99,,2013-03-16 03:02:00,
2013-03-15 23:12:00,40.0,-99.9,29.70,West,280,9.0,16.0,-999,-99.99,,,-99.99,,2013-03-16 03:12:00,
2013-03-15 23:22:00,40.0,-99.9,29.70,West,279,11.0,17.0,-999,-99.99,,,-99.99,,2013-03-16 03:22:00,
2013-03-15 23:33:00,40.0,-99.9,29.70,West,275,10.0,19.0,-999,-99.99,,,-99.99,,2013-03-16 03:33:00,
2013-03-15 23:43:00,40.0,-99.9,29.70,West,276,10.0,20.0,-999,-99.99,,,-99.99,,2013-03-16 03:43:00,
2013-03-15 23:53:00,40.0,-99.9,29.70,West,274,11.0,18.0,-999,-99.99,,,-99.99,,2013-03-16 03:53:00,